Location: Mountain Grove
(34.0887°N, 86.6172°W)
Time: 21:38:15
(UTC+00:00)

ATLAS 5 CENTAUR R/B - Pass Details

Date: 14 July 2020
Orbit: 534 x 1124 km, 63.4° (Epoch: 03 August)

Event Time Altitude Azimuth Distance (km) Brightness Sun altitude
Rises 08:24:15 0° 337° (NNW) 3,374 5.7 -23.6°
Reaches altitude 10° 08:26:43 10° 345° (NNW) 2,529 5.1 -23.3°
Maximum altitude 08:32:21 41° 55° (NE) 1,375 3.7 -22.6°
Drops below altitude 10° 08:38:43 10° 123° (ESE) 2,869 5.0 -21.7°
Sets 08:41:40 0° 131° (SE) 3,877 5.7 -21.3°
